Regional Weather Roundup
Issued by NWS

Current Version | Previous Version | Text Only | Print | Product List | Glossary On
Versions: 1 2 3 4 5 6 7 8 9 10 11 12 13 14 15 16 17 18 19 20 21 22 23 24 25 26 27 28 29 30 31 32 33 34 35 36 37 38 39 40 41 42 43 44 45 46 47 48 49 50
000
ASUS42 KKEY 301010
RWRKEY

FLORIDA REGIONAL WEATHER ROUNDUP FOR THE FLORIDA KEYS
NATIONAL WEATHER SERVICE KEY WEST FLORIDA
600 AM EDT TUE MAY 30 2017

...SOUTH FLORIDA AND THE KEYS...

CITY           SKY/WX    TMP DP  RH WIND       PRES   REMARKS
FORT MYERS     PTCLDY    76  74  93 CALM      30.08R
SW REGIONAL AP CLEAR     73  69  87 CALM      30.09R
NAPLES         CLEAR     75  73  93 E5        30.08R
MIAMI          PTCLDY    82  73  74 CALM      30.08S
WEST KENDALL     N/A    N/A N/A N/A MISG        N/A
HOMESTEAD      NOT AVBL
MARATHON       PTCLDY    84  76  76 SE8       30.07R HX  93
BOCA CHICA NAS CLOUDY    81  77  88 E10       30.06R
KEY WEST INTL  CLOUDY    83  76  79 SE14      30.06S HX  91

...INTERNATIONAL WEATHER...

CITY           SKY/WX    TMP DP  RH WIND       PRES   REMARKS
NASSAU BAHAMAS PTCLDY    81  73  78 CALM      30.11R
CANCUN MEXICO  MOCLDY    82  77  83 E8        29.99R HX  91
COZUMEL MEXICO PTCLDY    81  75  83 SE7       29.96S

ADJACENT COASTAL WATERS...

STATION/POSITION TIME  SKY/WX   TEMP    WIND        PRES    WAVE
                                AIR SEA DIR/SP/G            HT/PER
                 (UTC)          (F)     (DEG/KT/KT) (MB)    (FT/S)
PULASKI SHOAL LI 1000            82     130/ 14/ 16 1017.8R
SAND KEY         NOT AVBL
LONG KEY         0900            83 88  180/  6/  7 1018.2R
MOLASSES REEF    0800            83 83   90/  7/  9 1018.3F
FOWEY ROCKS      0900            83 82  120/ 11/ 13 1019.0R
Buoy 42097       1000                                 N/A     1/ 6

$$



USA.gov is the U.S. government's official web portal to all federal, state and local government web resources and services.